Location: Unspecified
(0.0000°N, 0.0000°E)
Time: 13:39:17
(UTC+00:00)

Tiros 1 despin weight - Pass Details

Date: 26 November 2019
Orbit: 594 x 642 km, 48.2° (Epoch: 08 December)

Event Time Altitude Azimuth Distance (km) Brightness Sun altitude
Rises 07:32:40 0° 226° (SW) 2,884 ? 24.5°
Reaches altitude 10° 07:35:01 10° 229° (SW) 1,968 ? 25.1°
Maximum altitude 07:39:27 59° 308° (NW) 702 ? 26.1°
Drops below altitude 10° 07:43:50 10° 28° (NNE) 1,932 ? 27.1°
Sets 07:46:07 0° 32° (NNE) 2,826 ? 27.6°
